EW7556 Weather Reports


time (UTC)temp
F
wind
direction
speed
knots
gust
knots
rain 1hr
in
rain 24hr
in
rain mn
in
humidity
%
barometer
mb
20260502151556 51 195 0.0 0.0 0.00 0.00 0.00 92 1018.4
20260502140110 47 240 0.0 0.9 0.00 0.00 0.00 92 1017.9
20260502123013 47 186 0.0 0.0 0.00 0.00 0.00 92 1017.7
20260502121519 48 186 0.0 2.6 0.00 0.00 0.00 92 1017.6
20260502120124 48 248 0.0 1.7 0.00 0.00 0.00 92 1017.5
20260502114512 48 248 0.0 0.9 0.00 0.00 0.00 92 1017.4
20260502113016 48 248 0.0 2.6 0.00 0.00 0.00 92 1017.2
20260502111519 48 211 0.0 0.9 0.00 0.00 0.00 92 1017.4
20260502110007 48 211 0.0 2.6 0.00 0.00 0.00 92 1017.1
20260502104509 48 198 0.9 2.6 0.00 0.00 0.00 92 1017.1
20260502103014 48 223 0.0 1.7 0.00 0.00 0.00 92 1017.1
20260502101515 48 211 0.9 4.3 0.00 0.00 0.00 92 1017.2
20260502100122 48 209 1.7 5.2 0.00 0.00 0.00 92 1017.2
20260502091517 48 229 2.6 6.1 0.00 0.00 0.00 92 1017.0
20260502090121 48 201 1.7 4.3 0.00 0.00 0.00 92 1017.0
20260502071510 49 195 0.0 0.9 0.00 0.00 0.00 90 1017.0
20260502070118 50 196 0.0 2.6 0.00 0.00 0.00 90 1016.9
20260502064501 50 217 0.9 6.1 0.00 0.00 0.00 90 1016.9
20260502063004 50 188 1.7 7.0 0.00 0.00 0.00 89 1017.0
20260502061508 51 243 1.7 5.2 0.00 0.00 0.00 89 1017.0
20260502060116 51 239 2.6 8.7 0.00 0.00 0.00 88 1016.7
20260502054600 51 195 3.5 7.0 0.00 0.00 0.00 88 1016.7
20260502053108 51 224 0.9 5.2 0.00 0.00 0.00 88 1016.8
20260502051505 51 229 0.9 2.6 0.00 0.00 0.00 88 1016.7
20260502050112 51 227 1.7 3.5 0.00 0.00 0.00 88 1016.5
20260502044558 51 226 0.9 2.6 0.00 0.00 0.00 88 1016.5
20260502043108 52 227 0.9 3.5 0.00 0.00 0.00 87 1016.5
20260502041604 52 209 0.9 3.5 0.00 0.00 0.00 86 1016.3
20260502040107 52 198 1.7 5.2 0.00 0.00 0.00 85 1016.1
20260502034553 53 216 1.7 5.2 0.00 0.00 0.00 85 1016.1
20260502033057 53 227 0.9 2.6 0.00 0.00 0.00 84 1016.0
20260502031602 54 195 2.6 6.1 0.00 0.00 0.00 82 1015.9
20260502030108 56 239 2.6 8.7 0.00 0.00 0.00 77 1015.6
20260502024551 57 205 2.6 10.4 0.00 0.00 0.00 75 1015.6
20260502023056 57 221 1.7 6.1 0.00 0.00 0.00 77 1015.5
20260502021607 57 236 1.7 6.1 0.00 0.00 0.00 78 1015.6
20260502020111 56 194 2.6 7.8 0.00 0.00 0.00 82 1015.6
20260502014601 55 221 1.7 7.8 0.00 0.00 0.00 85 1015.6
20260502013103 55 242 1.7 4.3 0.00 0.00 0.00 85 1015.8
20260502011604 55 246 2.6 6.1 0.00 0.00 0.00 83 1015.9
20260502010103 56 244 3.5 10.4 0.00 0.00 0.00 82 1016.0
20260502004600 57 224 2.6 7.8 0.00 0.00 0.00 83 1015.9
20260502003054 55 238 2.6 7.8 0.00 0.00 0.00 86 1016.0
20260502001558 54 209 2.6 7.8 0.00 0.00 0.00 87 1016.2
20260502000116 55 217 3.5 8.7 0.00 0.00 0.00 85 1016.1
20260501234556 55 214 4.3 10.4 0.00 0.00 0.00 85 1016.2
20260501233103 56 214 4.3 13.0 0.00 0.00 0.00 85 1016.3
20260501231604 55 227 4.3 8.7 0.00 0.00 0.00 86 1016.3
20260501230107 55 218 3.5 9.6 0.00 0.00 0.00 87 1016.5
20260501224543 54 202 3.5 7.0 0.00 0.00 0.00 87 1016.7
20260501223048 54 230 4.3 9.6 0.00 0.00 0.00 87 1016.9
20260501221553 54 222 3.5 8.7 0.00 0.00 0.00 86 1016.9
20260501220059 56 275 3.5 9.6 0.00 0.00 0.00 81 1017.1
20260501214543 57 230 3.5 8.7 0.00 0.00 0.00 83 1017.1
20260501213043 57 248 3.5 9.6 0.00 0.00 0.00 81 1017.2
20260501211547 57 236 4.3 7.8 0.00 0.00 0.00 80 1017.2
20260501210050 57 252 3.5 7.0 0.00 0.00 0.00 83 1017.2
20260501204537 57 247 1.7 7.0 0.00 0.00 0.00 85 1017.3
20260501203041 57 232 1.7 7.8 0.00 0.00 0.00 86 1017.2
20260501201554 56 240 2.6 7.0 0.00 0.00 0.00 87 1017.4
20260501200152 56 193 3.5 7.8 0.00 0.00 0.00 85 1017.4
20260501194554 56 203 2.6 7.0 0.00 0.00 0.00 85 1017.5
20260501193102 56 226 1.7 7.0 0.00 0.00 0.00 87 1017.6
20260501191603 54 235 3.5 8.7 0.00 0.00 0.00 87 1017.7
20260501190106 54 189 5.2 8.7 0.00 0.00 0.00 87 1017.8
20260501184550 55 243 3.5 7.0 0.00 0.00 0.00 86 1017.7
20260501183102 55 220 2.6 7.0 0.00 0.00 0.00 86 1017.8
20260501181502 55 226 1.7 7.8 0.00 0.00 0.00 87 1017.9
20260501180110 55 241 3.5 6.1 0.00 0.00 0.00 86 1017.9
20260501174555 55 188 2.6 5.2 0.00 0.00 0.00 88 1017.8
20260501173059 55 231 3.5 6.1 0.00 0.00 0.00 87 1017.9
20260501171602 54 200 1.7 4.3 0.00 0.00 0.00 90 1017.8
20260501170104 53 259 1.7 4.3 0.00 0.00 0.00 91 1018.0
20260501164551 53 231 1.7 3.5 0.00 0.00 0.00 92 1018.0
20260501163055 51 250 1.7 4.3 0.00 0.00 0.00 92 1018.1
20260501161605 51 206 0.0 4.3 0.00 0.00 0.00 92 1018.1